Regional Weather Roundup
Issued by NWS

Home | Current Version | Previous Version | Text Only | Print | Product List | Glossary On
Versions: 1 2 3 4 5 6 7 8 9 10 11 12 13 14 15 16 17 18 19 20 21 22 23 24 25 26 27 28 29 30 31 32 33 34 35 36 37 38 39 40 41 42 43 44 45 46 47 48 49 50
000
ASUS43 KFSD 051510
RWRSD

WEATHER ROUNDUP FOR SOUTH DAKOTA
NATIONAL WEATHER SERVICE SIOUX FALLS SD
900 AM CST MON DEC 05 2016

NOTE: "FAIR" INDICATES FEW OR NO CLOUDS BELOW 12,000 FEET WITH NO
SIGNIFICANT WEATHER AND/OR OBSTRUCTIONS TO VISIBILITY.


SDZ001>005-009-010-012>017-051600-
NORTHWEST AND NORTH CENTRAL SOUTH DAKOTA

CITY           SKY/WX    TMP DP  RH WIND       PRES   REMARKS
BUFFALO          N/A     27  20  75 NW37G47   29.52R WCI   9
FAITH            N/A     31  31 100 NW22      29.52R WCI  18
MOBRIDGE       CLOUDY    29  23  78 NE9       29.48F WCI  20
$$

SDZ012>016-024>037-041>051-057-063-072>074-051600-
SOUTHWEST AND SOUTH CENTRAL SOUTH DAKOTA

CITY           SKY/WX    TMP DP  RH WIND       PRES   REMARKS
RAPID CTY ARPT PTCLDY    32  27  81 NW28G36   29.54R WCI  18
PIERRE         PTCLDY    24  21  88 NW8       29.47R WCI  15
CUSTER         CLOUDY    27  18  69 N9        29.47S WCI  18
PHILIP         PTCLDY    32  26  78 NW12      29.53R WCI  23
PINE RIDGE     MOCLDY    34  27  75 N8        29.54R WCI  27
SPEARFISH      LGT SNOW  27  25  93 NW21G28   29.61R WCI  13
WINNER         FAIR      43  25  49 SW12      29.46S
$$

SDZ004>011-016>023-039-040-051600-
NORTHEAST SOUTH DAKOTA

CITY           SKY/WX    TMP DP  RH WIND       PRES   REMARKS
ABERDEEN       MOCLDY    30  26  85 E8        29.53F WCI  22
WATERTOWN      PTCLDY    32  27  81 SE10      29.54F WCI  24
BROOKINGS      CLOUDY    33  29  85 SE12      29.55F WCI  24
SISSETON         N/A     27  25  92 S5        29.59F WCI  22
$$

SDZ017-020-022-023-036>040-048>070-051600-
SOUTHEAST SOUTH DAKOTA

CITY           SKY/WX    TMP DP  RH WIND       PRES   REMARKS
SIOUX FALLS    CLOUDY    38  30  73 S13       29.57F
HURON          MOCLDY    32  28  85 SE9       29.51F WCI  24
CHAMBERLAIN    PTCLDY    32  28  85 SE6       29.47F WCI  26
MITCHELL       PTCLDY    34  28  79 SE9       29.52F WCI  27
YANKTON        CLOUDY    39  28  65 SE12      29.55F
$$

ABBREVIATIONS USED IN REMARKS
   TC - TEMPERATURE IN CELSIUS
  WCI - WIND CHILL INDEX
   HX - HEAT INDEX
  VSB - VISIBILITY





USA.gov is the U.S. government's official web portal to all federal, state and local government web resources and services.